ECMWFFLT1_500_spd_057.txt.gz
Wind_Speed
32 31 30 28 28 27 25 23 21 21 22 23 24 25 25 25 25 24 24 24 24 24 24 24 24 24 24 24 24 23 22 22 22 22 22 22 21 19 18 18 17 17 16 17 16 15 13 12 12 11 10 9 9 9 10 10 10 10 9 9 9 8 8
35 32 31 29 28 27 26 24 23 23 23 23 25 26 26 25 24 24 24 25 25 25 25 25 25 25 25 25 24 23 22 22 22 22 22 22 21 20 19 18 17 16 16 16 15 15 13 12 12 12 11 10 9 10 11 11 11 11 10 10 9 9 8
37 33 31 30 28 27 26 25 25 25 24 24 25 26 25 24 25 25 25 26 25 25 25 25 25 25 25 25 24 23 23 22 21 21 21 22 22 21 20 18 18 17 16 16 15 14 13 13 13 13 12 11 10 10 11 12 12 12 11 11 10 10 9
37 32 30 30 29 28 27 26 26 26 25 25 25 25 25 25 25 26 26 26 25 25 25 25 25 25 25 25 24 23 22 22 21 20 20 21 21 21 20 19 18 18 17 17 16 14 13 13 14 14 13 12 12 12 12 13 13 13 12 12 12 11 10
35 29 27 29 30 30 28 27 27 26 25 25 24 25 25 25 26 27 27 26 25 25 25 25 26 25 24 24 24 23 23 22 21 20 20 20 20 21 20 20 20 19 19 18 17 15 15 15 15 15 15 14 14 14 14 14 14 14 14 13 13 13 12
35 31 29 30 32 31 29 27 26 25 25 24 25 25 26 26 27 27 27 27 27 26 26 26 25 24 23 23 23 23 22 21 21 20 19 19 19 19 20 20 20 20 20 19 18 18 17 17 17 17 17 16 15 15 15 15 16 16 15 15 14 14 13
36 35 33 32 33 32 30 28 27 26 26 26 26 26 26 25 25 26 26 26 27 27 26 25 24 23 23 23 22 22 21 21 20 20 19 19 19 19 19 20 20 20 20 20 19 19 19 19 18 18 18 18 17 17 17 17 17 17 17 16 16 16 15
39 37 36 35 34 32 31 30 28 28 28 28 27 25 24 24 23 24 24 24 25 26 25 24 24 24 24 24 23 22 21 22 21 21 20 20 20 19 19 19 19 20 20 19 20 20 20 21 20 20 20 19 19 18 19 19 19 19 18 18 17 17 16
39 38 38 37 36 34 33 31 31 30 29 28 26 24 23 23 23 23 23 23 24 24 24 24 24 25 25 25 24 23 23 23 22 22 21 21 21 21 21 21 20 21 20 20 21 21 21 21 21 21 21 21 20 20 20 21 21 21 20 19 19 19 18
42 41 41 39 37 36 34 32 31 30 28 27 27 26 25 25 24 24 24 24 24 24 24 25 25 25 25 24 24 24 24 23 23 22 22 21 21 22 23 23 22 22 21 21 22 22 21 22 22 22 22 22 21 21 21 22 23 22 22 21 21 20 19
46 43 41 40 39 38 35 32 30 29 28 28 28 28 27 26 26 25 25 24 23 23 24 25 26 26 25 25 25 25 24 24 24 22 22 21 22 23 24 24 23 22 22 22 23 23 23 23 23 22 22 23 22 22 22 23 24 24 24 23 22 22 21
47 42 41 42 41 39 36 33 31 30 31 31 30 29 28 27 27 26 25 24 24 24 25 25 26 26 26 26 26 25 24 24 23 22 22 22 22 23 24 23 22 22 22 22 23 23 23 23 23 23 23 24 24 24 24 24 25 25 25 25 24 23 22
44 43 43 44 42 40 38 36 35 34 35 34 32 31 29 28 27 27 26 25 25 25 25 25 25 26 26 27 27 25 24 23 22 22 22 22 22 23 23 23 22 22 22 23 23 23 23 23 24 24 24 25 25 25 25 25 26 26 26 26 25 24 23
44 45 45 44 43 43 41 40 39 38 37 36 34 33 32 30 28 26 25 25 25 25 24 24 24 24 25 27 27 25 22 22 22 22 22 22 22 22 22 23 23 22 22 23 22 22 22 22 23 24 24 25 25 26 26 26 26 27 26 26 25 23 23
46 46 45 45 45 44 43 42 41 40 39 37 36 35 34 32 30 29 27 27 26 24 22 22 21 21 22 24 25 24 22 22 23 22 23 23 22 22 22 22 22 22 22 22 21 21 21 22 22 23 24 24 25 26 26 27 27 26 25 25 24 23 22
45 45 46 46 45 45 44 42 42 41 40 39 38 38 36 35 34 32 31 30 28 26 23 22 20 19 20 21 22 23 23 23 23 23 23 23 22 22 22 22 22 22 21 21 21 21 21 21 21 22 23 23 24 24 25 25 24 23 22 22 23 23 22
46 47 48 47 47 47 45 43 42 42 42 41 40 40 39 38 37 36 35 33 31 29 26 24 21 19 18 18 20 22 23 23 24 25 25 24 23 23 23 22 22 21 21 20 20 20 20 19 19 20 20 20 21 21 21 21 19 19 19 21 22 23 22
47 48 49 48 48 46 45 43 43 43 43 43 42 41 41 40 39 38 37 36 34 32 29 25 22 20 19 18 19 20 21 23 25 26 26 25 24 23 23 23 22 21 20 20 19 19 18 17 17 17 17 17 17 17 17 17 17 17 19 20 21 22 23
41 44 45 45 44 44 44 43 43 43 43 43 42 43 42 41 40 40 40 39 38 35 31 27 25 23 22 21 20 19 20 22 25 26 26 25 25 25 25 24 23 21 20 20 19 19 17 16 15 15 14 14 14 14 14 14 15 16 18 19 21 22 23
36 38 40 41 41 42 43 42 41 42 42 42 42 42 41 41 41 41 41 41 40 37 33 29 28 26 25 24 23 22 21 22 24 25 25 26 26 26 26 25 23 21 21 20 20 19 17 16 16 15 14 14 13 13 13 13 12 12 14 16 18 19 22
32 34 35 37 37 38 39 39 40 41 41 41 41 41 41 41 41 41 41 41 41 39 36 33 30 28 27 25 24 24 23 23 24 25 25 26 27 27 26 25 23 22 22 21 21 20 18 18 17 17 16 16 15 15 14 13 13 12 13 15 17 18 21
30 31 32 32 31 31 32 34 36 37 38 38 39 39 40 40 40 41 41 42 42 40 38 36 33 30 27 25 23 22 22 23 25 26 25 26 27 27 26 25 24 23 23 23 22 21 20 20 20 19 19 19 18 18 17 17 17 16 16 18 20 22 24
30 31 31 29 27 27 27 28 29 29 30 32 34 35 36 37 38 39 41 42 43 42 40 39 36 32 28 24 21 19 19 21 24 25 25 27 28 28 26 26 26 25 25 25 25 25 24 23 23 23 22 21 21 21 20 21 21 21 21 21 24 27 29
33 33 31 29 28 28 27 27 26 26 26 26 27 29 31 32 34 37 39 42 43 44 43 41 39 35 30 25 21 19 18 19 21 23 25 27 29 28 27 27 28 28 28 28 28 28 28 27 27 26 25 24 24 23 23 23 24 24 25 25 27 30 32
35 34 32 30 30 29 29 28 28 27 26 26 26 27 28 28 29 32 36 40 44 45 44 42 40 37 32 27 23 21 20 20 20 21 23 26 29 29 29 29 29 30 30 30 30 30 30 30 30 28 27 26 26 26 26 27 28 28 28 29 30 32 34
36 35 34 32 32 31 31 30 29 28 27 27 28 28 28 27 26 27 32 38 43 45 45 44 42 38 33 29 26 24 22 21 21 20 21 24 28 30 30 30 30 30 30 30 30 31 31 31 31 30 29 29 29 30 30 31 32 32 32 33 34 35 36
39 38 36 34 33 33 33 32 30 29 28 28 28 29 29 29 27 27 29 33 39 43 45 45 43 39 36 32 29 26 24 24 23 22 21 22 25 28 29 29 29 29 29 29 30 31 31 32 32 33 32 32 32 32 33 34 35 35 34 34 35 37 39
40 40 38 36 35 35 35 33 32 31 29 29 30 30 30 29 28 29 29 30 33 38 42 43 42 40 37 34 30 28 27 26 26 24 23 22 24 25 27 28 28 29 29 29 30 31 32 33 35 35 35 35 34 34 35 36 37 37 37 36 37 38 40
41 41 40 38 37 36 36 35 33 32 31 31 32 32 32 30 29 30 29 28 29 32 36 39 40 39 36 33 30 29 29 28 27 26 25 25 25 25 27 28 29 30 29 30 31 32 34 35 37 37 36 36 36 36 35 36 37 38 39 39 40 41 42
41 42 41 40 38 38 37 35 33 31 31 32 33 33 33 33 31 31 30 28 27 29 31 34 37 36 35 33 31 30 29 28 27 27 26 26 27 28 29 30 31 31 31 32 34 35 36 37 36 35 33 34 34 34 35 36 37 38 39 40 40 42 44
40 41 42 42 40 39 38 36 34 32 31 31 32 33 34 33 33 33 31 28 27 27 29 31 34 35 34 33 32 31 30 29 28 28 27 29 30 31 32 33 33 34 34 35 37 37 37 37 36 34 34 34 35 36 38 39 40 41 42 42 42 43 45
39 40 42 42 41 40 39 38 36 34 32 31 32 32 33 33 33 33 32 30 29 28 28 30 33 34 34 33 32 31 31 31 30 29 30 31 33 34 34 35 35 36 36 37 37 38 37 36 36 37 37 38 38 39 41 43 44 45 45 46 47 47 49
39 40 40 40 40 40 40 39 38 36 33 32 32 32 32 33 33 33 33 32 30 29 29 30 32 34 34 33 32 32 32 32 32 32 33 34 35 37 37 38 38 39 39 39 40 40 39 38 38 39 40 41 43 44 46 47 47 47 48 50 51 51 52
40 40 40 39 40 40 40 39 39 37 35 34 33 33 33 33 34 34 34 33 32 31 30 31 32 34 34 34 34 33 33 33 34 35 36 37 39 40 41 41 41 41 42 42 42 41 40 40 41 42 44 45 47 48 49 49 49 49 50 53 54 53 53
41 40 40 39 40 40 40 40 39 39 37 36 35 34 34 34 35 35 35 34 34 33 32 33 34 35 36 36 37 37 36 36 37 38 39 41 41 41 42 42 43 44 44 44 43 43 43 44 45 46 47 48 50 51 52 51 49 49 51 53 55 55 55
43 41 40 40 39 39 40 40 40 39 39 38 36 36 35 36 36 36 36 36 35 35 35 35 35 37 38 39 39 39 40 40 40 41 43 43 43 42 43 44 45 46 46 45 45 45 46 47 48 49 51 52 53 53 53 52 51 51 52 54 55 57 57
45 43 41 40 40 39 39 39 39 39 39 38 37 36 36 36 37 37 37 37 37 37 37 37 38 38 39 40 40 41 41 42 43 44 45 45 45 45 46 47 47 46 46 46 47 48 49 51 52 53 54 54 53 53 53 54 54 54 55 56 57 58 58
46 45 44 42 41 40 39 38 38 38 37 37 37 36 36 36 37 38 38 39 39 39 39 39 40 40 40 41 42 42 43 44 45 46 47 47 47 47 47 47 47 48 48 49 50 51 53 54 55 54 54 54 53 53 54 56 57 58 58 59 59 60 59

ECMWFFLT1_500_spd_060.txt.gz
Wind_Speed
31 30 26 23 23 24 24 23 19 17 17 19 19 19 20 21 21 22 22 21 21 21 21 20 20 21 21 21 21 20 19 18 18 18 18 16 15 15 14 14 13 12 12 12 12 11 10 9 9 10 9 8 7 6 6 6 6 6 6 5 5 5 5
30 33 28 24 24 23 24 24 19 16 16 17 19 20 21 22 22 22 23 23 23 23 22 22 22 22 22 22 22 20 19 18 18 18 18 16 15 15 14 14 13 13 13 13 13 13 12 11 11 11 10 9 8 8 7 7 7 7 7 6 5 5 5
27 33 31 24 23 24 25 26 20 17 16 17 19 20 21 22 23 23 24 24 25 24 24 24 23 23 23 23 21 20 19 18 17 17 18 17 16 15 14 13 13 13 12 12 13 13 12 12 12 11 11 11 9 9 9 8 7 8 8 8 7 6 5
21 27 29 25 24 26 27 25 20 17 16 17 18 19 21 22 24 25 26 26 25 25 24 24 24 24 23 21 20 19 18 17 16 17 18 18 17 15 14 13 13 13 13 13 12 12 12 12 12 12 12 12 11 10 10 10 9 9 9 9 8 7 6
22 24 26 25 25 26 26 24 20 17 16 17 18 20 21 23 25 26 26 26 26 25 25 25 24 22 20 19 19 18 17 16 16 16 16 17 17 16 16 15 15 15 14 14 13 13 13 13 13 13 13 13 13 12 12 12 12 11 10 10 10 9 8
23 22 27 26 23 24 24 23 21 18 18 18 19 20 22 24 25 26 26 26 25 25 25 24 22 20 19 18 18 17 17 16 15 15 15 15 15 15 16 16 16 16 16 16 16 15 15 15 15 15 15 15 15 14 14 14 14 14 13 12 12 11 10
24 23 29 27 20 21 23 23 23 21 20 21 21 22 23 24 25 25 26 25 24 24 23 22 20 19 19 19 18 18 17 16 16 16 15 15 15 15 15 16 16 17 17 17 17 17 17 17 18 18 18 17 17 16 16 16 16 16 15 14 13 13 12
28 26 29 27 21 21 23 24 26 25 23 23 22 22 23 23 24 24 24 24 24 23 21 20 20 20 20 20 20 19 18 18 17 16 16 15 15 16 16 16 16 17 18 17 18 18 18 18 18 19 19 20 19 19 18 18 18 18 17 16 15 15 14
30 26 28 27 25 24 25 27 29 28 25 23 23 22 23 23 23 22 22 22 23 22 21 21 21 20 21 20 19 19 19 19 18 17 17 16 16 16 17 17 17 18 18 18 19 19 19 19 19 20 20 20 21 21 20 20 20 20 19 18 18 17 16
30 25 25 27 26 25 26 29 30 26 23 21 22 23 23 22 21 21 22 21 21 21 21 21 22 21 20 20 19 20 19 19 18 18 17 17 17 17 18 18 19 19 19 19 20 20 20 21 21 21 21 21 21 21 21 21 22 22 21 20 20 19 19
32 28 25 27 29 27 24 27 28 23 20 20 22 22 21 21 21 21 21 21 21 22 22 22 21 20 20 20 20 20 19 19 19 18 18 18 18 19 20 20 20 20 20 20 20 20 21 21 21 22 22 22 22 22 22 22 22 23 23 21 21 21 21
33 32 27 28 32 30 26 27 26 22 21 21 22 22 21 21 22 22 22 22 22 22 22 22 21 20 20 21 20 20 19 20 19 19 19 19 19 20 21 21 20 20 20 19 19 19 19 21 21 22 22 23 23 22 22 23 23 23 23 23 22 22 22
35 35 32 31 34 31 27 26 25 22 22 22 24 24 21 21 23 23 22 22 21 21 21 21 21 20 20 20 20 20 19 20 20 20 20 20 21 21 22 22 21 19 19 18 19 18 18 19 21 21 22 22 23 23 22 23 23 23 23 24 23 23 23
36 37 35 32 33 32 29 25 24 24 25 26 27 26 22 21 23 24 23 22 22 21 21 21 21 20 20 21 21 20 20 21 22 22 22 22 22 22 22 22 21 20 19 19 18 18 18 18 19 21 21 21 21 22 22 23 23 23 23 24 24 24 24
36 37 37 33 32 33 32 29 27 28 29 30 30 28 24 22 23 24 25 24 23 22 22 21 21 20 19 19 20 20 20 22 22 22 22 22 23 23 23 23 22 20 19 18 18 19 18 18 18 19 20 20 20 21 22 22 22 23 23 24 25 25 25
38 36 36 35 34 35 35 32 30 31 32 31 30 29 27 25 24 25 25 24 23 22 22 21 20 19 18 17 18 19 20 21 22 21 22 22 23 23 24 24 23 22 20 19 19 19 19 18 17 17 18 19 20 20 21 21 21 22 23 24 25 25 25
35 36 35 35 36 36 36 36 34 33 32 31 31 31 30 29 27 27 26 25 24 23 22 21 20 19 18 17 17 18 18 19 20 20 20 21 22 23 24 25 24 23 22 20 19 19 19 18 17 16 17 19 19 19 19 19 20 21 22 22 22 22 22
30 35 37 37 38 38 38 38 37 35 34 33 33 33 33 32 31 29 28 27 25 25 24 23 21 21 20 18 17 17 16 16 17 18 19 20 21 23 25 26 25 23 22 21 20 20 19 18 17 17 17 17 18 19 18 18 19 20 19 19 19 19 18
34 37 39 40 40 41 40 40 39 38 37 36 36 35 34 33 33 32 31 29 28 27 26 25 24 24 23 21 19 18 17 16 16 16 17 19 21 23 25 26 25 23 22 22 21 21 20 19 18 17 17 16 16 17 17 17 17 17 17 17 17 17 17
34 34 35 36 37 39 41 41 41 39 37 35 35 35 34 33 33 34 33 32 30 29 28 27 27 27 26 25 22 20 19 18 17 16 17 18 20 22 24 25 24 24 23 23 22 21 20 18 18 18 18 17 17 17 16 16 16 16 15 15 15 16 17
28 30 32 32 32 33 36 38 37 35 34 33 33 33 33 33 34 34 34 33 32 31 31 30 30 29 29 29 27 25 23 21 20 19 19 19 20 21 21 23 24 24 24 23 23 21 20 19 19 19 19 19 18 17 16 15 15 15 14 14 15 16 17
25 28 30 30 30 30 31 33 32 31 32 33 32 31 32 32 33 34 34 34 33 33 33 33 32 32 31 31 31 30 27 24 22 21 21 21 22 22 22 23 24 25 25 24 23 22 21 20 20 20 20 20 19 18 16 16 16 15 15 15 16 17 18
25 27 28 28 26 24 25 29 30 31 32 33 32 32 32 32 33 33 34 35 34 34 35 34 33 33 33 33 33 32 31 28 24 22 20 19 21 22 23 24 25 25 25 25 24 23 22 21 21 22 22 21 21 19 18 18 18 18 17 17 17 19 20
28 28 28 27 23 20 21 25 28 29 31 32 32 32 32 32 33 34 35 36 35 35 35 34 34 34 33 34 34 34 33 31 27 23 20 18 18 20 23 25 25 25 26 26 25 24 24 23 23 23 23 22 22 21 21 20 20 20 20 20 21 22 23
31 30 29 27 23 21 21 23 24 25 27 28 28 28 29 30 31 32 33 35 36 36 35 34 34 34 34 35 35 35 35 33 29 25 21 18 17 19 21 24 25 25 26 26 26 25 25 24 24 24 24 24 24 24 23 23 23 23 23 23 24 25 26
35 33 31 28 26 24 24 24 23 23 24 24 24 24 25 26 27 28 29 31 33 34 34 35 36 37 37 37 36 36 37 35 30 27 23 20 18 19 21 23 24 24 24 25 25 25 25 24 23 23 24 25 25 26 26 26 26 26 25 25 27 28 30
37 36 33 30 29 29 28 27 25 25 24 23 23 23 23 23 24 25 25 26 27 28 30 33 36 38 39 39 38 37 38 36 32 28 25 23 21 20 20 21 22 22 22 23 24 24 23 23 22 22 22 23 25 26 27 28 28 27 27 27 29 31 32
38 38 35 33 33 32 31 29 28 27 26 25 25 25 24 24 25 25 26 25 24 24 26 29 32 36 38 39 39 39 38 37 35 31 28 26 24 22 21 20 20 20 20 20 21 22 22 22 22 22 22 23 24 25 26 28 29 29 29 30 32 33 34
40 38 36 36 36 34 32 31 30 29 28 27 27 27 26 26 27 26 26 26 26 26 27 27 28 31 34 36 38 38 38 38 37 34 31 28 26 24 23 22 22 21 20 20 21 22 22 23 23 23 24 24 25 26 27 29 31 32 33 32 33 34 34
40 38 37 38 37 36 35 33 31 30 29 29 29 28 27 27 26 25 25 25 27 28 28 28 27 27 29 32 34 36 38 38 37 36 33 30 28 27 26 25 25 24 23 22 23 23 23 24 25 25 26 27 28 29 30 31 32 33 33 33 33 34 35
40 39 39 40 40 39 37 35 33 31 30 30 30 29 28 27 27 26 25 25 26 27 28 28 27 26 26 28 31 34 35 36 37 36 34 31 30 29 28 27 27 27 26 26 25 25 25 26 27 28 29 29 30 30 32 32 31 32 34 35 35 35 36
41 40 40 41 42 41 39 38 36 34 33 32 32 31 29 29 29 28 27 26 26 27 28 28 28 27 27 28 30 32 32 34 35 35 34 33 32 31 30 29 29 29 28 28 27 27 27 27 28 29 30 30 31 32 33 33 33 34 37 38 37 37 38
43 42 42 42 43 43 42 40 38 36 35 34 34 33 31 30 30 30 29 28 28 27 28 28 28 28 28 28 29 29 30 31 34 34 34 34 34 33 32 31 31 31 30 29 29 29 29 29 30 31 32 33 34 35 35 36 36 38 39 40 40 40 42
44 44 43 43 42 42 43 42 41 39 38 36 36 35 33 32 32 31 30 30 29 29 28 27 28 29 29 28 28 28 29 31 32 33 34 35 36 35 34 33 33 33 32 31 31 31 31 32 33 34 35 36 37 38 38 38 39 40 42 42 44 45 47
45 45 44 43 42 42 42 43 42 41 40 39 39 38 36 34 33 33 32 32 30 30 29 28 28 29 29 29 29 28 29 31 32 34 35 36 36 35 34 33 34 35 34 32 32 33 34 35 35 36 37 38 39 40 40 41 41 43 44 46 48 50 51
46 46 45 43 42 42 42 42 43 43 42 41 40 40 38 37 35 35 35 33 32 31 30 30 30 30 30 30 30 29 30 32 33 35 36 35 34 33 33 34 35 35 35 34 34 35 36 37 38 39 39 40 42 42 43 43 44 46 48 50 52 54 55
48 47 45 43 42 41 42 43 43 43 42 42 41 41 40 39 37 36 36 36 35 34 33 32 32 32 31 31 31 31 32 34 34 36 36 35 34 34 34 35 36 36 37 37 37 37 38 39 40 41 42 43 44 45 45 46 48 49 51 53 55 57 59
49 48 47 45 43 41 42 43 43 43 43 43 42 42 41 40 39 38 38 38 37 36 34 34 33 33 32 32 32 33 34 34 35 36 37 36 36 36 37 38 39 39 39 39 40 40 41 42 42 43 45 47 47 48 49 50 52 53 54 56 58 59 59

ECMWFFLT1_500_spd_063.txt.gz
Wind_Speed
15 14 14 15 20 22 19 16 17 15 12 14 16 19 20 21 22 21 21 20 20 19 18 17 16 15 14 14 13 12 11 11 12 12 12 10 9 9 8 7 6 6 6 5 4 4 5 5 5 5 6 6 6 6 6 6 6 6 6 5 4 4 5
19 14 14 17 20 22 21 18 18 16 13 14 17 20 21 22 22 21 21 21 21 20 20 19 18 16 15 14 14 13 12 11 11 12 11 11 10 9 9 8 7 6 6 6 6 6 6 6 6 6 6 6 6 6 6 6 6 7 7 7 6 5 5
22 15 14 16 18 21 21 20 19 17 15 14 16 20 22 22 23 23 23 23 23 22 21 20 18 18 17 16 14 13 12 11 11 11 11 11 11 10 9 8 8 7 7 7 7 7 7 7 6 6 6 7 7 6 6 5 6 6 7 7 8 8 7
22 16 15 16 18 21 22 21 20 18 16 14 15 20 23 24 25 25 25 24 24 22 21 20 19 19 18 16 15 14 13 12 11 11 12 12 11 9 8 8 8 8 8 8 8 8 8 8 8 8 8 7 7 7 7 6 6 7 7 8 8 9 9
25 18 16 16 19 21 22 21 21 19 15 13 15 19 24 26 26 26 25 24 23 22 22 21 20 19 17 16 15 14 13 12 11 11 11 11 10 9 9 9 9 9 9 9 9 9 10 10 10 10 10 9 9 9 9 8 8 8 9 9 9 9 10
29 21 14 15 17 18 19 21 20 18 16 14 16 19 23 26 27 27 26 24 22 21 21 20 18 16 16 15 14 13 12 11 10 10 10 10 10 10 10 10 10 9 9 10 10 10 11 11 12 12 13 13 12 11 11 11 10 10 10 11 11 10 10
29 21 14 15 17 16 17 20 20 18 18 17 19 20 22 26 27 27 25 23 22 20 19 17 15 14 14 14 14 13 12 11 10 10 10 10 10 11 11 11 11 11 11 11 11 11 12 12 12 13 13 14 14 14 13 13 13 12 12 12 13 12 12
25 18 15 17 18 17 18 19 19 19 19 19 18 18 20 25 26 25 24 22 20 18 16 15 15 14 15 15 14 14 13 13 12 12 12 12 11 11 11 12 12 12 12 12 13 12 12 13 13 14 14 14 14 15 15 15 15 15 14 14 14 14 14
23 18 18 19 20 20 19 19 20 21 20 18 15 14 18 22 23 22 21 19 17 16 15 15 15 15 15 15 15 14 14 13 12 12 12 12 12 12 12 12 12 12 12 13 13 13 13 13 13 14 14 14 14 15 15 16 17 16 16 16 16 15 15
24 22 23 22 22 21 21 21 22 21 19 16 13 12 14 17 19 19 18 17 16 15 16 16 15 15 15 15 15 14 13 12 12 12 12 12 13 13 13 13 12 12 13 13 14 14 14 14 13 13 14 15 16 15 15 16 17 17 17 17 16 16 16
24 23 24 24 23 23 24 24 23 20 17 14 13 12 12 13 15 15 15 15 15 16 16 16 15 15 15 15 15 14 13 13 13 13 13 13 13 13 13 13 13 13 13 14 14 14 14 14 14 13 13 14 16 16 17 17 17 18 17 17 17 17 16
23 22 25 26 24 23 25 26 23 20 16 14 14 13 12 12 12 13 14 14 15 15 15 15 15 15 15 15 15 14 14 14 13 13 14 14 14 14 14 13 13 14 14 14 14 14 14 14 13 13 13 14 15 16 17 17 17 17 18 18 18 17 17
22 22 24 24 21 21 24 25 24 21 19 17 16 15 14 13 12 12 13 13 13 14 13 13 13 14 14 14 14 14 14 14 14 14 14 15 15 15 15 14 15 15 15 14 14 14 14 14 14 14 14 14 14 15 16 17 17 17 17 18 18 17 17
23 23 24 22 19 21 24 26 24 22 21 20 18 17 16 14 13 14 14 12 12 12 11 11 11 11 11 12 12 12 13 14 14 15 15 16 16 16 16 16 16 16 16 15 14 14 14 14 15 14 15 15 15 15 15 15 15 16 17 17 18 18 18
25 25 25 23 17 17 21 24 22 20 21 20 17 17 17 15 15 15 15 13 11 10 10 10 10 9 9 9 9 10 11 13 14 15 16 17 17 17 18 18 18 17 16 16 15 15 15 14 15 15 15 16 16 16 15 15 15 15 16 17 17 17 18
27 26 26 24 18 13 16 20 20 19 19 18 17 17 18 17 15 15 16 15 13 11 11 11 10 9 9 9 9 10 11 12 13 14 16 16 17 18 19 20 19 18 17 17 17 16 15 14 14 14 15 16 16 16 15 15 15 15 16 16 16 16 17
27 27 26 25 21 16 14 17 19 20 20 19 19 20 20 18 16 16 16 16 15 14 14 13 12 11 10 10 10 11 11 11 13 14 15 16 17 18 20 20 19 18 17 17 16 16 16 16 14 13 14 15 16 16 15 15 15 15 15 15 15 15 15
24 25 25 26 25 21 17 18 19 21 21 21 22 22 20 18 17 17 16 16 16 16 16 16 14 13 13 12 11 11 10 10 12 13 14 15 16 17 19 20 19 19 18 16 16 17 17 17 16 14 13 13 15 16 15 14 14 14 14 14 14 14 13
21 23 24 26 27 25 22 21 21 22 23 23 24 23 21 20 19 18 16 16 16 17 17 16 16 15 14 13 12 12 11 11 11 12 13 14 15 16 18 19 18 18 17 17 17 16 16 17 17 16 13 12 13 15 15 14 13 13 14 14 13 13 12
21 24 26 27 28 27 25 23 24 24 24 25 25 24 23 22 21 20 19 19 19 18 17 16 16 15 15 15 14 14 14 13 12 12 12 13 14 15 16 16 17 17 18 18 17 15 14 16 17 16 14 11 12 13 15 13 12 13 13 13 13 13 12
21 23 24 25 25 25 25 25 25 25 25 25 25 24 24 23 22 22 22 21 20 19 18 17 17 16 16 16 16 17 17 16 15 14 14 14 15 16 16 16 17 17 18 18 17 16 15 16 16 15 14 13 11 11 13 13 12 12 12 13 13 13 12
22 22 21 21 21 22 22 23 22 21 22 23 24 24 24 23 23 23 22 21 21 21 20 20 19 18 18 18 18 19 20 20 19 18 17 16 16 16 18 19 19 20 20 20 19 17 17 16 15 14 14 14 12 10 12 13 12 12 12 12 13 13 13
22 23 22 21 22 20 19 20 18 17 19 22 23 24 24 24 23 22 22 22 22 22 22 21 20 20 20 21 21 22 22 23 23 22 20 19 17 17 18 20 21 22 23 23 21 19 17 16 15 14 14 13 12 10 11 12 12 11 12 13 14 15 15
24 25 25 23 21 19 16 16 16 16 17 19 21 23 24 23 23 22 22 21 22 23 24 23 23 23 23 24 24 25 25 25 25 24 23 22 20 19 19 19 19 21 23 23 22 20 18 16 15 14 13 13 12 11 11 12 12 12 13 14 16 17 18
28 28 27 24 21 18 15 14 15 16 17 17 19 21 23 23 24 23 23 22 22 23 24 24 25 26 26 26 27 27 27 27 26 26 25 25 23 22 20 19 18 19 20 22 21 19 18 16 14 13 13 13 12 11 11 11 12 13 14 16 17 19 20
32 31 29 25 21 18 16 14 15 16 17 19 20 22 23 23 24 25 26 26 25 25 24 25 27 29 29 28 28 28 28 28 27 27 26 27 27 25 22 20 19 18 19 19 19 18 17 14 13 13 13 12 12 11 11 12 13 15 16 18 20 22 23
34 34 31 26 23 20 18 16 16 17 17 17 19 21 21 21 22 24 25 27 27 26 26 28 30 31 31 30 29 29 29 29 29 28 28 28 29 27 24 22 21 20 19 18 19 18 16 14 13 12 12 12 12 12 12 12 14 16 18 20 22 24 26
36 35 32 29 27 24 21 19 20 19 18 17 18 19 19 19 19 21 22 24 25 26 27 29 29 30 30 30 30 30 31 31 30 30 29 30 31 30 27 25 23 21 20 19 18 18 17 16 14 13 12 13 13 13 14 14 16 18 20 22 24 26 27
37 37 35 34 32 29 25 23 24 24 22 20 19 19 20 19 19 20 20 21 22 24 25 25 25 25 26 27 28 30 31 32 32 32 31 32 32 32 30 28 25 23 23 21 19 18 18 17 16 15 15 15 15 15 16 17 19 22 23 25 26 26 27
37 38 38 38 36 33 29 27 27 26 25 24 23 22 22 21 21 21 21 21 21 22 23 22 22 23 23 24 26 28 29 30 31 31 32 33 34 33 31 29 27 25 25 25 23 21 20 19 18 18 17 17 18 19 20 22 24 26 26 26 27 27 28
37 38 39 40 39 38 34 31 29 28 27 26 26 25 24 24 24 23 22 22 22 22 22 21 22 22 23 23 23 24 25 26 27 29 32 34 34 33 32 31 28 26 27 27 26 24 23 22 21 21 20 21 22 22 24 26 28 28 27 27 28 29 30
37 38 40 41 42 40 38 36 33 30 29 28 28 27 27 27 27 26 25 24 24 24 23 23 23 22 23 23 23 23 24 24 25 27 29 31 32 32 33 32 30 27 28 29 29 27 26 25 24 24 24 24 24 25 27 29 29 28 27 28 29 30 32
38 39 39 41 43 43 41 39 37 33 31 30 29 29 29 28 28 27 26 26 26 26 25 25 24 24 24 24 24 25 25 25 25 26 27 28 29 31 32 32 31 29 30 30 31 30 29 28 27 27 26 26 27 28 30 30 29 29 30 30 31 32 33
40 41 41 41 43 44 43 41 39 36 33 31 31 30 29 29 29 27 27 27 28 28 27 27 26 26 26 26 26 25 26 26 26 26 27 27 28 29 30 31 31 31 31 32 32 32 32 31 30 29 29 29 29 30 31 31 31 32 32 33 33 34 35
42 43 43 42 43 44 44 43 41 39 36 34 32 32 31 30 29 28 27 28 29 29 28 28 28 27 28 28 27 26 26 27 27 27 27 28 28 28 30 31 31 31 32 34 35 35 34 34 33 32 31 30 31 32 32 33 34 35 35 35 36 36 37
46 45 44 44 43 44 44 44 43 41 38 36 35 34 33 32 31 30 29 29 30 30 30 30 30 29 29 29 28 28 27 27 27 27 27 28 28 29 31 31 32 32 34 35 35 36 36 35 34 33 32 32 33 34 35 35 36 36 37 37 38 39 40
47 47 46 45 44 44 44 45 44 43 41 39 38 37 36 35 34 33 32 32 32 32 33 33 32 31 31 30 29 29 28 28 27 27 27 28 29 30 31 31 32 33 34 35 35 36 36 36 35 34 34 35 35 36 36 37 37 37 38 40 41 43 44
46 46 47 46 45 44 44 45 45 44 43 41 40 39 38 38 37 36 36 35 34 35 35 35 35 34 33 32 31 30 30 30 29 28 28 29 30 31 32 32 33 34 35 36 36 36 37 37 36 36 36 37 37 37 38 38 39 39 41 42 44 45 47

ECMWFFLT1_500_spd_069.txt.gz
Wind_Speed
15 17 20 21 22 20 17 14 11 10 9 8 8 9 11 14 17 19 20 20 20 21 20 19 18 18 18 19 18 17 17 18 19 19 18 16 16 16 16 15 15 14 14 13 11 10 8 6 5 4 2 2 3 4 6 7 8 8 9 10 11 11 11
17 19 23 24 23 21 19 17 14 12 11 9 8 8 10 14 17 19 20 20 21 21 21 20 19 19 19 20 19 19 18 19 20 20 19 18 17 17 17 15 15 14 14 13 11 9 8 7 5 4 3 2 1 1 3 4 5 6 8 9 9 10 11
20 21 25 26 24 21 20 18 15 13 11 10 9 9 10 12 17 19 20 21 21 22 21 21 20 20 21 21 20 20 20 21 21 20 20 19 18 18 18 17 15 14 13 12 11 10 8 7 6 5 5 4 3 2 2 2 3 4 6 7 8 9 10
22 23 25 26 24 23 22 19 17 15 13 11 10 10 11 12 16 19 20 21 21 21 21 21 21 22 22 22 21 21 22 22 22 22 21 21 20 19 19 18 17 15 13 13 12 10 9 8 8 7 7 6 5 5 5 5 5 5 6 6 7 9 10
19 22 24 25 23 23 23 21 19 18 15 12 11 12 12 12 14 18 19 19 20 21 22 23 23 23 22 21 21 22 23 24 24 23 23 23 22 20 19 19 18 17 16 14 13 12 10 10 10 9 9 8 8 8 8 7 7 8 8 8 9 9 10
15 19 21 21 21 22 23 22 20 18 16 13 12 13 13 12 13 16 19 19 19 20 22 23 22 22 21 21 21 22 24 25 25 25 24 23 22 21 20 20 19 18 17 15 14 13 12 12 11 11 10 10 9 9 9 9 9 9 9 10 10 11 11
17 17 19 19 21 23 24 23 21 19 17 15 15 16 15 14 14 17 19 19 19 20 21 21 21 20 21 21 21 22 23 24 25 25 25 24 23 22 21 20 19 18 17 16 15 14 13 13 12 12 11 10 10 10 10 10 10 11 11 11 11 12 12
20 18 19 19 20 22 25 25 22 21 19 17 18 18 16 14 14 16 19 19 19 19 19 20 20 20 20 21 21 22 23 24 25 25 25 24 23 22 21 20 19 18 17 16 16 15 15 14 13 12 11 11 10 10 10 11 11 12 12 12 11 12 12
21 20 20 20 20 22 26 27 24 22 21 18 18 18 17 15 14 16 19 20 19 18 19 20 21 21 22 21 21 21 23 24 24 24 24 23 23 22 22 21 20 19 18 18 18 17 16 15 13 12 11 11 10 10 10 11 11 11 12 12 12 11 11
22 21 22 23 23 24 28 28 27 25 22 20 19 19 18 16 16 17 20 20 20 19 20 21 22 22 22 22 22 22 21 22 22 22 21 21 22 23 22 22 21 20 20 20 19 17 16 15 13 12 11 11 11 11 11 10 10 10 11 11 12 12 11
25 24 24 26 25 27 31 31 28 26 23 21 20 20 19 17 17 18 19 20 21 21 21 22 22 22 22 22 22 21 21 21 21 21 21 21 22 23 23 22 21 21 21 20 18 17 16 14 13 12 12 12 12 11 11 10 10 10 11 11 11 11 11
27 27 28 30 29 29 33 32 30 28 24 22 22 20 19 18 18 19 20 20 22 23 22 22 22 22 22 22 22 22 22 22 22 23 23 23 23 23 23 22 21 21 20 18 17 16 15 14 14 13 13 14 13 12 12 11 11 11 11 11 11 11 11
29 32 34 36 34 33 35 34 33 30 26 23 23 21 21 20 20 20 21 21 23 24 24 23 23 23 23 23 22 22 22 22 23 24 24 25 25 24 23 22 21 20 19 18 17 16 15 15 14 14 14 14 13 13 12 11 11 11 11 11 11 12 12
29 32 36 38 38 37 37 36 36 32 27 25 24 23 23 22 21 20 20 22 23 24 24 24 24 24 24 24 23 23 23 24 25 26 26 25 25 24 23 22 22 21 20 19 18 17 16 15 15 15 14 13 13 13 12 11 11 11 12 12 12 12 12
25 28 34 38 39 39 38 37 36 32 28 26 25 25 25 24 22 21 20 22 23 23 24 25 25 25 24 24 24 24 25 26 26 26 26 25 24 23 23 23 23 22 21 20 19 18 17 16 16 15 14 13 13 13 12 11 11 12 12 12 11 11 11
23 25 31 35 38 39 38 37 35 31 29 27 26 26 26 25 23 19 18 20 22 23 25 25 25 25 24 23 24 25 26 26 25 25 24 23 23 23 23 24 23 22 22 21 20 19 18 17 16 15 14 14 14 13 12 11 12 12 11 11 10 10 10
21 22 27 32 35 38 39 37 34 32 30 29 27 27 27 26 23 19 17 18 21 22 23 24 24 24 24 24 25 26 26 25 24 24 23 22 23 23 23 23 23 23 23 22 21 20 19 17 16 16 15 15 14 13 12 12 13 12 11 10 10 10 10
17 19 22 28 33 37 39 36 34 33 32 30 28 27 27 26 24 20 18 18 19 21 22 23 23 23 24 24 25 25 25 24 24 23 23 22 22 23 23 23 23 23 22 22 21 20 19 18 17 16 16 16 15 14 13 13 13 12 11 11 10 10 10
15 16 19 25 32 36 36 35 34 34 31 30 29 27 27 27 25 21 19 19 19 21 22 22 22 23 23 23 23 22 21 21 21 20 20 20 21 22 22 22 21 21 22 22 21 20 20 19 18 17 17 16 15 15 15 15 14 13 12 11 11 10 10
17 16 18 24 30 33 34 35 35 33 31 30 29 28 28 28 25 22 21 21 21 21 22 23 23 23 22 22 21 20 19 18 18 17 17 17 18 18 18 18 18 19 20 20 20 20 20 20 18 18 18 17 17 17 16 16 15 14 13 12 12 11 11
19 19 20 26 30 31 33 34 34 33 32 32 32 32 32 30 28 27 26 25 24 23 23 24 24 23 22 21 20 19 18 17 17 16 16 15 15 14 14 14 15 15 16 17 18 19 20 20 20 20 19 18 18 18 17 17 18 16 14 14 14 13 13
19 20 22 27 31 31 31 32 32 32 32 33 35 35 34 32 32 31 30 28 26 25 25 25 24 24 23 22 21 20 19 18 18 17 16 15 15 14 13 13 13 13 14 15 16 18 19 20 21 20 19 19 19 19 18 19 20 18 16 16 16 16 16
20 21 23 27 30 31 31 31 32 33 34 36 37 36 35 34 34 33 32 31 29 28 27 26 25 25 24 24 22 21 20 19 19 18 17 16 15 15 14 14 13 14 14 14 15 16 18 20 21 21 21 21 21 20 20 21 21 20 19 19 18 18 18
23 22 22 25 28 30 32 33 34 35 37 39 39 38 37 36 36 35 34 33 32 31 30 28 27 26 26 25 25 24 23 21 20 19 18 17 16 16 16 15 15 15 16 16 16 17 18 20 22 22 23 23 22 21 21 23 23 22 21 21 20 20 19
27 25 24 24 25 27 30 33 35 36 39 41 41 40 39 39 37 36 34 33 33 32 31 30 29 29 28 28 27 26 24 23 22 21 20 19 19 18 18 17 17 17 18 18 18 19 20 21 22 23 23 23 24 24 24 24 25 24 23 22 21 21 21
29 29 27 25 23 23 25 29 33 36 38 41 41 41 41 40 39 37 35 35 34 33 32 32 32 32 31 30 29 28 26 25 24 23 23 22 22 22 21 20 19 19 19 19 19 19 20 20 21 22 24 25 26 27 27 27 27 26 25 23 22 22 22
31 31 31 29 26 23 22 23 27 31 35 38 40 41 42 42 41 40 39 39 38 36 36 35 35 35 34 33 31 30 29 28 27 26 26 25 25 24 24 23 22 22 21 21 20 19 19 19 19 19 21 24 27 29 29 29 29 27 25 24 23 23 24
33 33 32 31 29 26 24 23 24 26 29 34 38 42 43 43 43 42 42 41 40 39 39 38 37 36 35 35 34 33 32 31 30 29 29 29 28 27 26 26 25 25 24 23 22 20 19 18 17 16 17 19 23 26 29 30 29 28 27 25 24 24 25
34 34 32 32 31 28 26 26 25 24 26 30 35 39 42 44 43 43 43 42 41 41 40 39 38 38 37 37 36 35 34 33 33 33 32 31 31 30 29 29 28 28 28 26 25 23 21 20 19 17 15 16 18 21 25 28 28 28 27 26 25 25 25
33 34 32 32 31 29 28 27 25 24 25 28 32 36 40 43 44 44 45 44 43 42 40 40 40 41 40 39 38 38 37 36 35 35 35 34 34 33 32 31 31 31 31 30 29 26 24 23 22 20 18 17 17 19 23 27 28 29 28 27 27 27 27
33 33 32 31 30 30 30 29 25 22 24 27 30 33 36 39 41 43 44 44 44 43 42 41 41 41 40 40 40 39 39 39 38 37 36 36 36 36 35 35 35 35 34 34 32 30 28 27 25 23 22 20 19 19 22 26 29 30 30 30 29 29 28
34 33 32 31 30 30 31 30 26 23 23 25 28 30 32 34 36 38 40 41 42 43 44 43 43 42 41 41 41 41 42 41 40 39 39 39 39 39 39 39 39 38 37 37 36 34 32 31 29 27 26 24 23 22 22 25 28 30 31 31 31 30 30
38 35 34 32 32 32 31 31 29 26 25 25 26 27 28 29 31 33 35 37 39 41 43 44 45 45 44 44 44 44 43 43 42 42 42 43 43 42 42 42 41 41 40 39 39 37 36 34 33 32 30 28 27 26 25 25 26 28 29 30 31 31 31
42 39 36 35 34 34 33 33 32 30 29 28 28 27 26 26 27 29 30 32 35 39 42 44 45 45 46 45 45 45 44 44 44 43 43 43 42 42 42 42 42 41 41 41 40 40 39 37 35 34 34 32 31 30 29 27 27 28 29 31 31 32 32
45 42 39 37 36 35 35 35 34 33 32 32 31 31 29 27 26 26 26 27 29 33 37 40 43 44 45 45 44 44 44 43 42 41 40 39 38 37 38 39 40 41 41 41 41 41 40 39 37 36 35 35 34 33 32 30 30 30 31 32 33 34 34
47 45 42 40 38 36 36 35 35 34 35 35 35 34 33 31 28 26 25 25 26 28 31 34 37 39 41 41 42 41 40 38 37 35 34 33 32 33 33 34 35 36 38 39 39 39 38 39 38 37 37 37 36 36 35 34 33 33 33 33 34 35 35
49 47 45 44 41 39 37 36 35 35 36 36 36 35 34 33 31 29 27 26 26 27 29 30 31 32 34 35 35 35 34 32 31 30 29 30 30 31 31 32 31 32 33 34 35 35 35 36 38 38 38 38 38 38 38 38 37 37 36 36 36 36 36
50 48 46 45 43 41 39 37 36 36 36 36 35 34 34 34 35 34 31 28 27 28 30 30 30 31 31 31 31 31 31 30 29 29 28 29 29 30 31 31 31 31 31 31 32 32 33 34 36 38 38 38 38 38 40 41 41 40 39 39 39 39 39

ECMWFFLT1_500_spd_072.txt.gz
Wind_Speed
21 21 22 22 22 22 19 17 16 13 12 11 10 10 11 13 15 18 20 21 22 22 22 22 22 22 22 22 22 20 17 16 18 19 18 18 17 16 15 15 15 16 16 15 14 13 11 9 8 7 7 7 7 8 9 10 11 12 12 13 14 15 15
26 24 23 23 24 23 21 19 18 16 14 13 11 10 10 12 15 17 19 21 22 24 24 24 24 23 24 24 23 21 18 18 19 20 18 18 17 17 17 16 15 16 16 14 13 12 10 9 8 6 6 6 5 5 6 6 7 8 9 10 10 11 12
29 27 26 25 24 24 23 21 20 17 15 14 13 11 11 12 14 17 19 21 23 25 25 25 25 25 26 25 24 22 21 21 21 20 19 19 19 19 19 17 16 16 15 14 13 11 10 9 8 7 6 6 5 4 3 2 2 3 4 5 6 7 8
30 29 29 27 25 25 25 24 23 20 17 16 14 12 12 13 14 17 19 22 23 24 25 26 26 27 27 27 25 23 23 23 23 22 22 22 22 21 20 18 17 16 15 14 13 12 10 9 8 8 7 7 6 5 5 4 3 2 2 2 3 4 5
30 29 30 30 29 28 28 27 27 23 19 17 16 14 14 14 15 16 18 21 23 24 26 28 29 29 29 28 26 25 25 25 25 25 24 24 24 23 21 20 18 17 17 16 14 13 12 11 10 10 9 9 8 7 7 6 6 5 5 5 5 5 5
30 29 29 30 29 29 30 31 29 25 21 19 17 16 15 15 15 15 17 20 22 24 27 29 30 30 29 28 28 27 27 27 27 27 26 26 25 24 23 22 21 19 18 17 15 14 13 12 12 12 12 11 10 9 9 8 8 8 7 7 7 7 7
28 28 28 27 26 25 28 32 31 27 23 21 20 20 19 18 16 16 18 20 22 24 26 27 28 28 28 28 28 28 28 28 28 28 27 26 25 25 25 24 22 21 19 18 17 16 15 14 14 14 14 13 12 11 10 10 10 9 9 8 8 8 8
25 26 25 23 21 21 25 30 32 30 27 25 24 23 21 19 18 18 19 20 22 23 24 26 27 27 27 27 28 28 28 29 29 28 28 27 26 26 26 24 23 22 20 19 18 17 16 16 15 15 15 14 14 13 12 11 11 10 9 9 8 8 8
25 25 23 20 18 19 22 26 30 30 29 27 26 24 22 21 19 18 19 20 22 23 24 25 27 28 28 27 27 28 29 29 29 28 28 28 28 27 26 25 24 23 21 21 19 18 18 17 17 16 16 15 14 13 13 12 11 11 10 8 8 8 7
26 26 24 22 20 21 22 25 28 29 29 28 27 26 24 22 21 19 20 21 22 23 25 26 27 28 28 27 28 29 29 28 28 28 28 29 29 28 27 26 25 24 23 22 21 20 20 19 18 17 16 15 15 14 14 13 12 11 9 8 7 7 7
27 27 26 26 25 24 26 28 30 29 29 28 28 27 25 23 22 21 20 21 23 25 26 27 28 28 28 28 28 28 28 27 27 26 27 28 29 29 28 27 26 25 24 24 23 22 21 20 19 18 16 16 15 15 14 13 11 10 9 8 7 7 7
28 28 28 28 27 27 28 29 30 31 30 28 28 28 26 24 24 22 21 22 24 27 28 28 28 28 28 28 28 27 27 26 25 25 25 26 27 28 28 27 27 26 26 25 25 24 22 21 20 18 17 17 16 15 14 13 11 11 10 9 8 8 8
33 33 31 30 29 29 29 29 30 32 31 29 29 29 26 25 25 24 22 23 25 28 29 29 28 28 29 28 28 27 26 25 25 25 25 26 27 28 28 28 28 27 27 27 26 25 23 22 20 18 18 17 16 15 14 14 13 13 12 11 10 10 9
37 36 34 34 33 32 31 30 31 33 32 31 31 30 27 27 27 26 24 24 26 28 29 29 29 29 29 28 28 27 26 26 26 26 27 27 28 28 29 28 28 28 28 28 27 25 24 22 21 19 18 18 16 15 15 14 14 15 14 13 11 11 10
36 35 35 36 36 34 33 31 32 33 33 32 32 31 28 28 29 29 27 26 27 28 30 30 30 30 29 29 28 27 28 28 29 29 29 29 29 29 28 28 28 28 28 27 26 25 24 22 21 19 18 17 16 16 15 14 15 16 16 14 12 11 11
33 34 36 37 37 36 34 33 33 32 33 34 33 31 28 29 30 29 27 26 27 28 30 31 31 31 30 30 29 29 30 30 30 30 31 30 29 29 29 28 28 28 27 26 25 24 23 21 20 19 18 17 16 16 15 15 16 17 16 14 13 12 12
31 33 35 36 37 37 35 34 34 33 32 33 33 31 28 28 30 29 27 27 27 28 30 31 31 31 31 30 31 31 31 31 31 31 30 30 30 29 28 28 27 26 25 25 24 23 22 21 20 19 18 17 17 16 15 15 17 18 16 14 13 13 13
29 30 29 31 34 36 37 38 37 35 34 35 35 32 29 29 30 30 28 27 27 28 29 31 31 31 31 31 32 32 31 31 31 31 30 30 29 29 28 27 26 26 25 24 24 23 22 21 20 19 19 18 17 17 16 16 18 18 16 15 14 14 14
26 26 26 27 31 35 39 41 38 37 38 39 37 32 29 30 30 29 27 27 27 27 28 29 30 30 31 31 31 31 30 30 31 30 30 30 30 29 29 27 26 26 25 25 25 24 23 22 21 20 19 18 18 17 17 18 20 19 17 16 15 15 15
25 27 27 28 31 34 38 39 39 41 43 41 36 32 30 31 30 30 28 27 26 26 27 28 29 29 30 30 30 30 29 30 30 29 29 29 29 28 28 26 26 26 26 26 25 24 23 23 22 21 20 19 19 19 19 19 21 20 18 17 17 16 16
26 29 29 29 30 31 33 36 39 42 43 39 36 33 32 32 32 32 29 27 26 26 27 28 28 29 29 30 29 29 29 28 28 27 27 27 27 26 25 25 24 24 24 25 24 23 23 23 23 21 21 21 20 20 20 21 22 21 20 19 18 18 17
27 27 27 26 26 27 29 34 38 40 39 37 35 34 33 33 34 33 30 28 28 28 28 28 29 29 29 29 29 28 27 26 26 25 25 24 24 23 22 22 22 22 22 23 22 22 23 23 23 22 23 23 22 21 21 22 22 23 22 21 20 18 17
28 24 23 22 24 27 30 35 37 37 37 37 35 35 35 35 36 35 34 32 30 30 30 30 30 29 28 27 27 26 25 24 24 23 23 22 21 20 19 19 19 19 20 20 19 20 21 21 22 23 24 24 23 22 23 23 24 24 24 23 21 18 17
31 26 22 22 24 28 33 37 37 36 37 38 37 38 38 38 38 38 37 34 33 33 33 32 31 29 27 26 25 25 25 25 24 23 22 21 19 19 19 19 18 17 17 17 17 18 19 20 21 22 23 23 24 24 24 24 25 27 26 24 21 18 17
32 27 23 22 24 28 33 37 38 37 38 39 39 40 40 39 39 40 39 37 36 35 34 33 32 30 28 27 28 28 27 27 26 24 22 21 20 20 20 19 18 17 16 16 17 17 18 19 19 20 21 22 23 24 24 25 27 28 27 25 22 20 19
32 27 23 22 23 27 32 35 37 38 38 38 39 41 41 41 42 42 41 39 37 36 35 34 33 32 31 31 31 30 29 28 26 25 24 22 22 21 21 20 19 19 18 18 18 19 19 19 19 19 20 21 22 23 23 25 27 29 28 27 25 23 22
31 26 23 22 23 26 31 35 37 38 37 36 38 40 41 42 43 44 42 40 37 36 36 36 35 34 33 33 32 30 29 28 27 27 26 25 24 23 22 22 21 21 20 20 19 19 19 19 20 20 20 21 21 22 23 25 27 29 29 27 26 26 26
31 27 24 23 24 26 31 35 37 36 34 34 36 40 42 43 44 43 41 38 36 35 36 37 36 36 34 34 33 32 31 30 29 29 28 27 27 26 25 24 24 23 23 22 21 20 19 19 20 20 20 21 21 21 22 24 26 29 30 29 28 27 27
32 29 26 26 27 27 31 35 36 35 34 33 35 39 42 43 43 41 39 37 36 36 37 38 38 38 38 36 35 34 33 32 32 32 31 30 29 28 27 27 26 26 25 24 23 22 21 21 21 20 20 20 19 17 18 20 22 24 27 29 30 29 27
34 31 29 30 29 29 30 33 35 34 35 35 37 40 42 43 42 40 38 38 38 39 41 42 42 42 40 39 38 38 37 36 35 35 33 32 31 30 30 29 29 29 28 27 26 25 24 24 24 23 21 20 19 17 16 18 19 20 22 25 27 28 28
36 33 32 32 33 32 31 31 32 32 33 35 37 40 43 43 43 42 41 41 41 41 43 43 43 44 44 43 42 42 41 40 39 37 35 34 33 33 32 33 32 32 31 30 29 28 28 28 28 27 25 23 22 20 19 20 20 21 21 23 24 26 27
37 35 34 34 35 36 34 32 30 29 30 32 34 38 41 42 43 44 44 44 44 44 44 43 42 43 44 44 43 43 43 42 40 39 38 38 37 36 36 36 35 35 34 33 32 31 31 31 31 31 30 28 26 25 24 23 22 22 23 24 24 25 27
38 35 35 36 36 37 36 34 33 31 30 30 31 34 37 41 43 44 45 46 46 45 45 45 44 43 42 42 42 41 41 40 39 40 40 41 40 39 39 39 38 37 37 36 35 35 35 35 34 34 33 32 31 30 29 27 26 25 25 26 26 26 28
40 38 38 37 36 36 37 36 35 34 32 32 32 32 34 38 40 43 44 45 46 47 48 48 48 46 44 43 44 43 43 43 43 43 43 43 42 42 42 41 40 40 40 40 39 39 39 38 37 37 36 36 35 34 33 32 30 29 28 28 28 28 29
43 42 41 40 38 37 37 37 36 35 35 34 33 33 33 34 37 40 43 45 46 47 48 49 49 48 46 46 46 46 46 47 47 47 47 46 45 45 45 44 43 43 43 43 43 43 42 42 41 40 40 39 38 37 36 35 34 34 33 32 31 31 30
48 46 43 41 41 40 40 39 38 38 37 36 34 32 31 32 33 35 38 41 41 43 44 46 47 48 48 48 48 48 48 49 49 49 49 48 47 47 47 47 46 46 46 46 47 47 46 46 45 44 44 43 42 41 40 38 38 38 37 36 35 34 33
50 48 45 43 42 41 41 41 40 39 39 38 36 34 32 32 32 32 34 35 36 37 39 41 44 46 47 48 48 48 49 49 50 50 50 50 49 49 49 49 49 49 50 50 50 49 48 47 46 46 46 45 44 43 42 41 40 39 39 39 38 37 36
51 48 46 45 43 42 42 41 41 40 40 39 38 37 36 35 34 34 33 33 33 33 34 36 39 41 43 44 45 46 48 49 50 50 50 51 50 50 50 50 50 50 49 49 48 47 46 45 45 46 46 45 44 42 41 40 40 40 40 40 40 40 39

ECMWFFLT1_500_spd_075.txt.gz
Wind_Speed
34 31 28 26 25 24 22 22 20 18 16 15 15 15 16 18 21 22 23 24 24 24 24 24 24 25 25 25 24 22 20 20 21 21 21 20 19 17 16 16 16 17 17 16 15 14 13 13 12 12 13 14 15 16 17 17 18 18 18 18 17 17 16
35 33 30 27 26 25 24 24 23 20 18 16 16 15 16 17 19 21 23 24 25 25 25 26 26 25 26 27 26 24 22 21 22 23 22 20 19 18 17 16 16 17 17 16 15 15 13 12 11 10 10 11 11 12 13 13 14 14 14 15 15 15 15
36 34 31 29 27 26 25 25 24 22 19 17 16 16 16 17 18 21 24 24 25 26 27 27 27 27 28 28 27 25 24 23 24 24 23 22 21 20 19 18 17 18 17 17 16 15 13 12 11 10 9 9 8 8 8 8 8 8 8 9 10 11 11
36 33 31 30 28 27 27 26 25 23 21 18 17 16 17 18 19 22 24 26 26 27 27 27 28 28 29 29 28 27 25 25 25 25 25 24 23 22 21 20 19 19 19 18 17 15 13 12 11 10 9 9 8 7 6 5 4 3 3 4 4 5 6
35 32 32 31 30 30 29 28 27 25 23 20 19 18 18 19 20 22 24 26 27 27 29 30 30 30 31 31 30 28 27 27 27 27 26 25 24 23 23 22 21 21 21 20 18 16 14 13 11 10 10 9 8 7 6 5 4 4 3 2 1 1 1
35 33 32 31 31 31 31 30 29 27 25 23 21 20 19 19 20 20 23 25 27 28 29 30 31 31 32 31 31 30 28 28 28 28 28 27 26 26 25 24 23 23 22 21 19 18 16 14 12 11 11 10 9 8 7 7 6 6 6 5 4 4 3
35 34 32 31 32 32 32 32 30 29 28 27 25 23 22 20 20 20 22 24 26 28 29 29 30 31 31 31 31 31 30 30 30 30 29 28 28 28 28 26 25 25 23 22 20 19 17 16 14 13 12 11 10 10 9 9 9 8 8 8 7 6 6
36 35 33 32 32 31 32 33 33 32 32 31 30 27 24 22 22 22 22 23 25 27 28 29 30 31 31 31 31 31 31 31 32 32 31 30 30 30 29 28 27 26 25 23 22 20 19 17 16 15 14 13 13 12 11 11 10 10 10 9 9 8 7
38 37 35 33 32 32 32 32 33 35 36 34 32 29 27 25 23 22 22 23 25 26 27 28 30 31 32 32 31 31 32 33 33 33 32 31 31 31 30 29 28 27 26 25 24 22 21 19 18 17 16 15 15 14 13 12 11 11 11 10 9 8 8
39 38 36 34 33 33 33 31 32 35 38 37 34 32 30 28 25 24 23 24 24 25 27 29 30 31 32 32 32 32 32 33 33 33 31 31 32 32 32 31 29 28 27 26 25 24 22 21 20 18 17 17 17 16 14 13 12 12 11 10 9 8 8
40 38 37 35 33 32 32 30 29 31 35 37 35 33 31 29 27 26 25 24 24 25 27 29 31 32 32 32 32 32 32 32 33 32 31 31 32 33 33 32 31 29 28 27 26 25 24 23 21 20 20 19 18 17 15 14 13 12 11 10 9 9 9
41 39 38 38 36 33 32 30 28 29 33 36 36 33 32 30 28 27 26 25 25 26 27 28 30 32 33 33 32 31 31 32 32 31 31 31 33 34 34 33 32 31 30 29 28 27 26 25 23 22 22 21 19 18 16 14 13 12 11 10 10 10 11
44 42 41 40 39 37 35 32 30 29 31 34 35 34 32 30 28 28 28 27 27 27 28 29 30 32 33 34 33 31 31 31 31 32 31 32 33 34 35 34 33 33 32 31 30 28 27 26 25 24 23 22 20 18 17 14 13 12 12 11 11 12 12
45 45 45 44 42 40 38 35 32 30 30 31 33 33 33 31 29 29 29 29 29 29 29 29 30 31 33 34 33 31 31 31 32 32 33 33 33 35 35 35 34 34 33 32 31 29 28 27 26 25 23 22 20 18 16 14 13 13 14 14 13 13 13
47 47 47 46 45 43 41 38 35 32 32 32 33 34 33 31 29 29 31 31 31 31 30 30 30 31 33 34 33 31 31 32 33 34 34 33 33 34 35 35 34 34 33 32 31 30 29 28 27 25 23 22 20 18 16 14 14 15 15 15 15 14 13
47 48 49 49 48 46 45 42 39 36 36 36 37 37 36 33 30 29 31 32 32 32 31 31 31 32 33 33 33 32 32 32 33 34 34 33 32 33 34 34 34 33 32 32 31 31 30 29 28 26 24 22 20 18 16 15 15 16 16 17 16 14 13
47 48 49 50 50 50 48 45 43 40 39 38 38 38 37 35 32 30 31 32 33 33 32 31 31 32 32 33 34 34 33 33 34 34 34 33 32 32 33 33 33 33 32 32 31 31 31 29 28 26 24 22 20 18 16 16 17 17 17 17 16 15 14
46 46 48 51 53 53 51 49 46 42 39 39 38 38 38 36 34 32 32 32 33 33 32 32 31 31 32 34 35 36 35 34 34 34 34 33 33 33 34 34 33 33 32 32 31 31 30 28 27 25 24 23 21 19 18 18 18 18 18 18 17 16 15
44 45 46 48 48 47 47 48 47 43 40 39 38 37 37 36 33 31 31 32 33 34 33 32 31 32 33 35 37 37 36 35 35 35 35 35 35 35 35 34 33 33 32 32 31 30 29 27 26 25 24 23 21 20 19 19 19 18 18 18 18 17 16
42 41 40 39 39 40 42 46 47 44 41 38 36 35 37 36 33 32 32 32 33 34 34 33 32 32 34 36 37 37 37 36 36 36 36 36 36 36 35 34 33 32 32 31 30 28 27 26 25 25 24 23 22 21 20 20 19 19 19 19 19 17 17
35 32 31 32 33 35 40 45 47 46 44 40 36 35 36 34 33 33 33 32 33 35 35 34 33 33 35 37 38 38 37 36 35 36 36 36 36 35 33 32 32 31 30 29 28 27 26 26 25 25 25 24 22 21 20 21 21 21 20 21 20 19 18
26 25 26 27 28 30 35 40 44 46 45 41 38 37 36 34 33 34 33 32 33 35 35 34 34 34 35 37 37 37 36 36 35 35 35 34 34 32 31 31 30 30 29 28 27 26 26 26 25 25 24 24 23 22 21 22 23 22 22 23 22 20 18
24 25 26 28 30 32 34 36 40 44 44 41 39 38 37 36 35 34 34 33 34 36 36 35 34 34 35 36 37 37 36 35 34 34 34 33 31 30 29 30 30 30 29 28 27 26 26 25 25 25 25 24 23 23 23 24 25 24 24 25 24 22 19
27 26 26 28 31 33 35 36 38 40 41 41 41 40 39 38 38 36 35 34 35 36 36 35 34 34 35 36 36 36 36 35 34 33 33 31 29 28 29 29 29 28 27 26 26 25 25 25 25 25 25 24 24 24 25 26 26 26 25 26 26 23 20
30 26 25 26 29 31 33 35 36 38 40 41 42 42 41 41 40 38 36 36 37 37 36 34 33 33 34 35 36 36 35 35 34 33 31 30 28 28 28 28 27 26 25 25 24 24 24 24 24 24 23 23 23 24 25 25 26 26 26 27 27 24 22
34 29 27 26 26 28 29 30 32 36 37 39 40 42 43 42 41 39 37 38 38 38 35 34 33 33 34 36 36 36 35 34 33 32 30 28 28 28 27 27 26 25 23 23 23 23 23 22 22 22 22 23 23 23 23 24 25 25 26 27 27 25 23
37 33 31 28 25 25 25 25 28 32 33 35 38 41 42 41 40 38 39 39 38 37 36 34 34 34 35 35 35 34 33 33 31 30 29 28 28 27 27 25 25 23 22 22 23 22 22 22 22 22 22 22 21 21 21 21 23 24 25 26 26 26 25
40 37 35 32 28 25 23 24 27 31 32 33 36 38 39 39 38 38 39 38 37 37 37 36 35 34 34 34 34 33 32 31 30 29 29 29 28 27 26 25 25 24 23 23 23 22 22 22 22 21 21 21 20 20 19 20 21 22 23 25 26 26 26
43 40 38 37 33 29 27 27 28 30 32 33 34 35 36 36 35 37 38 38 38 39 38 36 35 33 33 33 32 31 31 31 31 31 31 30 29 28 27 27 26 26 25 24 24 23 23 22 22 21 20 20 20 20 20 21 21 22 22 24 25 26 26
45 43 42 40 36 31 29 28 28 30 33 35 35 35 33 32 33 37 39 39 40 39 37 36 35 34 33 33 32 32 32 33 33 33 33 32 31 30 29 28 28 27 26 25 25 25 24 24 23 22 21 21 20 20 21 21 22 21 21 22 22 23 23
47 45 44 41 36 32 29 28 28 30 34 35 36 35 32 30 32 37 40 40 39 38 37 37 36 36 36 36 36 36 35 35 35 35 34 34 33 32 31 31 30 30 29 28 28 27 27 27 26 24 24 23 23 23 23 23 22 21 21 21 21 21 21
48 47 45 41 36 32 28 27 29 34 36 37 37 35 32 30 32 38 41 40 39 39 39 39 39 39 40 40 40 39 38 37 37 37 36 36 36 34 34 34 33 33 32 32 31 31 30 30 29 28 27 26 26 26 27 26 25 23 23 23 23 22 21
50 47 44 41 37 32 28 27 30 36 38 38 37 36 34 31 32 37 40 41 40 40 41 41 42 42 43 43 43 42 41 40 40 40 39 39 38 37 37 37 37 36 36 35 34 34 34 33 33 32 31 30 30 30 30 30 29 28 26 26 26 26 25
51 48 45 41 37 33 30 28 31 36 38 39 38 37 35 33 32 35 38 40 40 40 41 42 44 45 46 46 46 45 44 44 44 43 42 42 41 40 39 40 40 39 38 38 38 37 37 36 36 35 34 34 33 33 32 32 31 31 30 29 29 29 29
53 49 47 43 39 35 32 31 32 35 37 38 37 37 36 34 33 34 36 38 39 40 42 44 46 45 45 46 46 45 46 47 48 46 45 45 44 43 42 42 42 41 41 41 41 41 40 39 39 38 37 37 36 35 34 34 34 34 34 34 33 33 33
55 51 48 45 41 37 35 34 35 36 37 37 37 36 35 34 34 34 35 37 39 41 43 45 47 44 41 40 41 42 42 44 47 48 48 48 48 47 46 45 45 45 44 43 43 42 42 42 41 41 40 40 39 38 37 37 37 38 38 38 38 37 36
56 52 50 47 43 40 38 38 38 39 39 39 38 36 35 34 35 36 36 37 39 41 44 46 47 46 43 41 41 42 42 42 44 46 49 50 50 49 48 48 47 45 44 44 43 43 43 43 43 43 42 42 41 40 40 40 41 42 42 41 41 41 40
57 54 51 48 46 43 42 41 41 41 42 41 40 39 37 36 36 36 36 37 39 42 44 45 47 47 46 43 42 42 43 44 43 44 44 45 45 46 46 46 45 44 44 44 45 44 44 44 44 44 44 44 43 42 43 43 44 44 44 44 44 43 43

ECMWFFLT1_500_spd_078.txt.gz
Wind_Speed
35 33 31 29 27 25 22 22 22 22 22 22 24 25 27 27 27 27 27 27 28 28 28 27 27 28 28 28 26 24 22 22 23 24 24 23 21 20 19 18 17 17 17 16 14 14 14 14 15 15 15 15 15 15 15 15 14 13 12 11 10 8 7
35 33 32 30 28 25 23 23 23 22 21 22 23 24 25 27 27 28 27 28 28 28 29 29 29 29 29 29 28 26 24 24 25 25 24 23 22 21 20 19 18 18 17 16 16 16 16 16 17 18 18 18 19 18 18 17 16 15 13 12 11 10 9
36 34 33 31 28 25 24 23 23 22 21 21 21 21 22 25 27 28 29 29 29 29 29 30 31 31 31 31 30 28 26 25 26 26 25 24 23 22 21 19 18 18 17 17 18 17 17 18 18 19 19 19 19 18 17 16 15 13 12 11 9 8 8
37 35 33 31 30 28 26 24 24 24 23 22 20 20 21 23 26 29 30 30 30 30 29 30 32 32 32 32 31 29 28 27 27 27 26 26 25 23 21 20 19 18 18 19 20 19 19 19 19 18 18 18 17 16 15 13 12 10 9 8 6 5 4
38 36 35 34 32 31 27 25 25 25 24 23 21 21 22 23 25 28 30 31 31 31 31 32 33 34 33 33 32 31 29 29 29 29 28 27 26 24 22 21 20 19 20 22 21 20 20 20 20 19 18 17 16 14 13 11 9 8 7 5 4 3 2
40 38 37 36 34 32 29 26 25 25 25 24 22 22 23 23 24 26 29 31 32 32 33 33 33 34 34 33 33 32 31 30 30 30 29 28 26 25 24 23 22 21 22 24 23 21 21 21 20 19 18 16 15 13 12 10 9 8 7 6 5 4 4
41 40 38 37 36 34 31 28 26 27 27 26 25 25 25 24 23 24 26 29 31 32 33 33 33 33 33 34 33 33 32 32 31 31 30 28 27 27 26 25 24 23 24 25 24 22 21 21 20 19 17 16 14 12 11 10 9 8 7 7 7 6 5
41 40 40 38 37 35 32 30 29 29 30 30 29 28 26 25 24 24 24 26 30 31 32 33 33 33 33 34 33 33 33 33 33 33 31 30 28 28 28 27 26 25 25 26 26 24 22 21 20 19 17 15 14 13 11 11 10 9 9 9 8 8 7
41 40 40 40 38 37 35 33 32 32 32 32 31 29 28 28 26 24 24 26 28 30 32 33 33 34 34 34 33 33 34 34 34 33 32 31 30 30 29 29 28 27 27 27 27 25 23 22 20 19 18 16 15 14 13 12 12 11 11 11 10 9 8
42 41 41 41 40 39 38 36 35 35 35 34 33 32 31 30 27 26 26 26 27 28 31 33 34 35 35 34 34 34 35 34 34 34 33 32 31 31 31 31 29 28 28 29 28 26 25 23 21 20 18 17 16 16 15 14 14 13 13 12 11 10 9
43 42 43 43 42 41 40 39 37 37 36 35 34 33 32 31 29 27 27 26 26 27 31 33 34 35 35 35 35 35 35 34 34 34 33 32 32 32 32 32 31 30 29 29 28 27 26 25 23 21 20 19 18 17 17 16 15 14 14 13 11 10 10
44 45 45 45 44 43 42 40 39 38 38 37 36 35 34 33 31 29 28 27 27 28 30 32 34 35 35 36 36 35 34 34 34 33 33 33 32 32 33 33 32 31 31 30 29 29 27 26 24 23 22 21 20 19 18 16 15 14 13 12 12 11 12
47 48 48 48 47 45 43 42 40 40 38 37 37 37 37 36 34 32 30 29 28 28 29 31 33 34 35 36 36 35 34 34 33 32 32 33 33 33 34 34 33 33 32 31 30 30 28 27 26 25 24 23 21 20 19 17 15 15 13 12 12 12 13
50 51 51 51 49 47 45 43 42 41 39 36 36 37 38 38 37 35 32 31 29 28 29 29 31 33 34 36 36 35 35 34 33 32 32 33 34 34 34 35 35 34 33 32 31 31 30 29 28 27 26 24 22 21 19 18 16 15 14 13 14 14 14
53 54 54 53 51 48 46 44 43 42 40 37 36 37 37 38 38 37 34 32 30 29 28 28 30 32 34 35 35 35 35 35 35 33 33 33 34 34 34 35 36 36 34 33 32 32 31 30 29 28 26 25 23 22 21 19 17 16 16 15 15 15 14
56 57 57 55 53 51 48 46 44 42 40 38 37 37 37 38 38 37 35 32 30 29 28 27 28 31 33 34 34 34 35 36 35 35 34 33 34 34 34 35 36 37 35 34 34 33 33 31 30 29 27 26 24 23 22 20 18 17 18 17 16 16 15
59 59 60 58 55 54 52 49 46 44 42 39 37 36 36 37 38 38 35 33 31 30 28 28 28 29 31 33 34 35 36 36 36 35 35 34 34 35 34 34 35 36 36 36 35 35 34 33 31 30 29 27 26 25 24 22 20 19 19 18 17 16 15
60 60 61 60 58 56 54 52 49 46 43 40 37 36 36 38 39 39 36 33 31 30 29 28 28 28 30 32 34 35 35 36 36 36 35 35 34 35 35 35 35 35 36 36 36 35 35 34 33 32 31 29 27 26 24 23 21 21 20 19 17 16 15
60 60 60 60 60 58 55 53 50 47 45 42 39 37 35 36 38 38 36 34 33 31 31 30 29 30 30 31 32 34 35 36 36 36 35 35 35 35 36 35 34 34 34 36 36 36 35 34 34 34 33 31 29 28 26 24 22 22 21 20 18 17 16
60 61 60 60 59 58 56 54 51 48 46 44 41 38 36 37 37 39 39 38 36 35 33 32 31 31 31 31 32 33 35 35 35 36 36 36 36 36 36 35 34 33 34 35 36 35 35 34 34 34 33 32 30 29 27 25 23 23 22 20 19 18 17
60 61 60 60 59 59 58 55 52 49 47 46 44 41 40 40 39 40 41 40 38 37 35 34 33 32 32 32 32 33 34 35 35 35 36 37 37 36 35 35 34 34 34 34 34 34 34 34 35 34 33 32 30 29 27 26 25 24 23 21 20 19 18
58 60 60 60 60 59 58 56 53 50 48 49 48 46 44 42 40 40 42 41 39 38 37 35 35 34 33 34 33 32 32 33 34 35 36 37 37 36 36 35 34 34 34 34 34 34 34 34 34 32 32 31 29 28 27 27 27 25 24 23 22 20 19
54 57 59 60 61 59 57 55 53 51 51 51 51 50 47 45 43 41 42 42 41 39 38 36 35 34 34 34 33 31 31 32 34 35 36 36 37 37 36 35 34 34 34 33 33 34 34 33 32 31 31 30 29 28 28 28 28 27 25 25 24 22 21
49 53 56 58 58 56 54 53 52 52 53 53 52 51 49 47 45 42 42 43 42 40 38 36 35 34 34 34 33 31 30 31 32 34 35 36 36 36 35 34 34 34 33 32 32 33 33 32 32 30 30 29 29 28 28 29 29 27 26 26 25 23 22
46 49 51 52 51 50 50 50 51 52 54 54 54 52 51 49 46 43 43 44 43 40 38 36 35 34 34 35 34 31 30 30 31 33 35 36 36 35 35 34 34 33 32 32 32 32 32 31 30 29 29 29 28 28 29 29 29 27 27 26 26 25 24
43 43 44 44 44 44 45 45 46 48 51 53 53 53 52 50 47 45 45 45 43 40 38 36 34 34 35 36 34 32 30 30 30 33 35 35 35 35 34 34 33 33 32 31 31 31 31 30 29 28 28 28 28 28 28 28 28 27 27 27 27 26 25
40 38 37 37 38 38 39 40 41 43 46 49 51 52 51 51 49 48 48 47 43 39 36 35 34 35 36 36 33 31 30 29 30 32 34 35 35 34 34 33 33 32 31 31 30 30 30 29 29 28 28 28 28 28 27 28 28 27 27 27 26 26 25
38 36 34 34 34 35 36 36 38 39 41 44 46 48 49 49 49 50 50 46 40 37 36 35 35 36 36 34 32 30 29 29 30 32 34 35 35 34 34 33 32 31 31 30 30 29 29 29 28 28 28 28 28 27 26 26 26 25 25 25 24 23 23
37 35 34 34 35 35 34 34 34 35 36 38 40 41 43 45 48 50 49 43 38 37 37 36 36 37 36 34 31 29 28 29 30 32 33 34 34 33 32 32 31 31 30 30 29 28 28 28 27 27 27 26 26 25 24 24 24 23 22 21 21 21 21
37 37 37 37 37 35 33 31 30 30 32 34 36 38 40 43 47 47 43 39 38 39 37 36 37 38 36 33 30 29 28 29 30 32 32 32 32 31 31 31 31 30 29 29 28 27 27 27 26 26 25 25 24 24 23 23 22 22 20 20 21 20 20
40 40 41 40 38 35 30 27 27 29 30 32 34 37 39 41 43 42 40 39 41 40 37 36 38 37 34 32 30 28 28 29 30 31 31 31 30 31 31 31 30 29 28 28 28 27 27 27 27 26 26 25 25 24 23 22 21 21 20 20 20 20 20
43 45 44 42 40 36 30 26 27 28 29 30 34 37 39 41 42 42 42 42 42 40 38 37 37 36 34 32 30 29 28 28 29 30 30 31 31 31 31 31 30 30 30 30 30 29 29 29 29 29 28 27 26 25 24 23 22 21 21 20 21 21 21
47 48 47 45 42 39 33 30 29 28 28 29 32 34 37 40 41 42 42 42 41 39 38 38 37 36 34 32 30 30 29 30 31 32 33 34 33 33 33 33 33 33 32 32 32 31 32 32 31 30 29 28 27 27 26 26 25 24 23 23 24 24 24
50 51 49 47 45 43 39 35 33 31 30 30 31 33 35 36 37 38 39 39 39 39 39 38 38 36 35 33 33 33 33 34 35 35 35 35 35 35 35 35 35 35 34 34 34 34 34 34 33 32 31 31 30 30 29 29 28 27 27 27 27 27 28
53 53 52 49 47 46 44 41 37 35 33 32 33 35 36 36 35 35 36 37 37 38 39 39 39 38 37 37 38 38 37 37 37 37 37 37 38 38 38 38 38 37 37 37 37 37 36 36 36 35 34 34 33 32 32 31 31 30 30 30 30 30 30
57 56 54 52 49 48 46 44 40 37 35 35 36 38 39 38 36 35 35 35 35 35 37 40 41 41 41 41 41 41 41 41 41 40 40 40 39 40 40 41 40 40 40 39 39 39 39 39 38 38 37 36 36 35 34 34 33 33 34 35 34 33 32
59 58 56 54 52 50 48 45 42 39 37 36 37 38 39 38 37 36 36 35 34 34 36 40 42 42 42 43 43 44 45 45 45 44 44 43 42 41 42 43 44 43 43 42 41 41 41 41 41 40 40 39 38 38 38 37 36 36 36 37 37 37 35
59 60 58 56 54 51 49 47 44 41 38 36 36 38 39 38 37 37 37 36 35 34 35 38 41 42 43 44 44 46 47 46 45 46 46 46 45 45 45 45 46 45 45 45 44 44 43 43 43 43 43 43 42 42 41 41 40 39 38 38 39 40 39

ECMWFFLT1_500_spd_084.txt.gz
Wind_Speed
29 26 24 24 24 22 22 21 21 20 19 21 24 26 26 26 26 26 26 26 25 24 23 22 21 21 21 20 19 17 16 16 16 16 17 17 16 15 14 14 13 12 10 9 8 7 7 7 7 7 7 7 7 7 6 5 4 3 2 2 1 1 1
28 26 25 27 26 25 26 24 21 19 17 19 23 26 27 26 25 25 26 26 25 25 24 24 23 22 22 21 20 19 17 17 17 18 18 18 17 16 16 15 14 13 11 9 8 8 8 8 7 7 7 7 7 7 6 5 4 3 3 3 3 4 4
28 28 25 26 27 27 27 23 20 20 19 18 21 23 25 25 24 24 25 26 26 26 26 25 24 24 24 23 21 20 18 18 18 18 19 19 19 18 17 16 15 13 11 9 9 10 9 8 8 7 7 7 8 8 7 6 6 6 6 6 7 7 8
27 28 26 25 27 29 27 23 22 24 21 18 19 21 24 25 25 24 24 26 27 27 27 27 26 26 26 25 23 21 19 18 18 19 20 20 20 19 18 17 16 14 12 11 11 11 10 9 8 7 7 7 8 8 8 8 8 9 8 8 8 8 9
25 24 26 26 27 30 27 22 21 21 19 17 18 21 24 26 26 24 24 25 26 27 28 29 29 28 28 27 25 23 20 18 18 19 20 21 20 19 18 17 16 15 13 13 12 11 10 9 8 8 8 8 9 9 10 10 10 10 8 7 6 6 7
22 22 24 24 26 28 24 20 19 19 18 18 20 22 23 24 24 23 23 25 26 27 28 29 29 28 28 28 27 25 22 20 19 19 20 21 20 19 18 17 16 15 14 14 13 12 11 10 9 8 8 9 10 11 12 11 10 9 7 5 4 4 5
24 24 24 23 24 26 23 21 21 22 22 23 25 25 24 22 22 21 21 23 25 26 27 27 27 27 27 28 28 27 25 22 21 20 21 21 20 19 18 18 16 15 15 14 13 13 12 11 10 10 10 11 12 13 12 11 9 7 6 4 2 2 2
29 30 30 26 25 25 25 25 25 26 27 26 27 26 22 19 19 19 18 19 22 24 25 26 26 26 27 28 28 28 27 25 24 22 22 22 21 20 19 18 17 16 16 15 15 15 14 13 12 12 11 13 13 14 13 11 9 7 5 3 2 0 1
34 35 36 31 27 26 26 27 27 28 28 26 25 24 19 15 14 14 14 17 19 21 23 25 25 26 27 28 28 29 29 28 26 24 24 23 22 21 21 20 19 18 17 17 17 17 16 15 14 13 14 15 15 15 14 12 10 8 6 4 2 2 2
36 38 39 34 28 29 29 28 29 29 28 25 23 21 17 12 11 12 13 15 16 18 21 23 25 26 27 28 29 29 30 29 28 27 25 24 24 23 23 21 20 20 19 19 19 18 17 17 16 15 15 16 16 16 15 13 11 9 7 5 3 3 4
35 40 43 34 26 28 31 30 30 29 26 23 22 21 19 14 12 12 13 14 15 16 18 20 22 24 26 27 28 29 29 29 29 28 26 25 25 26 25 24 22 21 21 20 20 20 19 18 18 17 17 18 18 18 17 15 13 11 9 7 5 4 4
33 37 44 39 29 27 31 33 32 28 24 23 24 23 23 20 16 14 15 16 15 16 16 17 19 21 24 27 27 28 28 29 29 28 27 26 26 27 27 26 24 22 21 22 21 21 21 20 20 19 19 20 20 20 19 17 14 12 11 9 7 6 5
31 33 38 40 34 31 33 36 34 29 26 26 27 27 25 22 20 18 18 18 17 17 17 16 16 17 20 23 24 26 27 28 28 28 28 28 27 28 28 27 26 23 22 22 22 22 22 21 21 21 21 21 22 22 20 18 16 14 12 10 9 8 7
31 34 36 37 36 35 36 38 35 30 28 29 30 30 27 24 22 22 21 21 20 19 18 17 15 15 16 17 18 21 24 26 27 28 28 28 28 28 28 28 27 25 24 23 23 23 23 23 23 22 23 23 23 23 22 20 18 16 14 12 10 10 9
38 39 39 40 38 37 37 38 35 33 33 34 34 33 30 27 26 26 25 23 22 20 19 18 17 15 14 14 13 15 19 21 24 25 27 27 27 27 27 28 28 27 25 24 24 23 24 24 24 23 23 24 23 23 24 22 19 17 16 14 12 11 10
48 46 44 44 42 39 37 37 36 37 37 37 36 35 33 32 31 29 26 25 23 22 21 19 19 17 15 14 13 13 14 16 18 21 23 25 26 26 26 27 28 27 26 25 25 24 25 26 25 24 24 24 24 23 24 23 22 19 18 17 14 12 11
50 49 47 46 45 42 39 37 38 41 42 42 40 38 37 35 33 31 29 27 25 24 23 21 20 19 17 16 16 15 13 13 14 16 18 21 23 24 25 26 27 27 26 26 27 26 26 26 26 25 25 25 25 24 23 24 24 22 21 19 16 13 12
47 48 46 44 44 43 42 39 38 39 43 45 44 41 40 38 36 34 31 29 27 26 26 24 22 21 20 18 19 18 15 13 13 13 15 17 19 21 23 24 25 26 25 25 27 28 27 26 26 26 26 26 25 25 24 24 25 24 23 21 18 16 14
43 45 45 43 43 43 42 41 40 39 40 41 41 41 41 40 39 37 33 31 30 29 29 27 25 24 23 21 20 20 18 16 14 13 13 14 16 18 20 21 22 24 24 25 26 28 28 27 27 28 28 27 26 26 25 24 24 25 25 23 21 18 16
41 44 45 46 45 44 43 42 42 43 42 41 40 41 41 41 40 37 35 33 32 31 29 28 27 25 24 23 21 21 19 18 16 14 13 13 14 16 18 19 20 22 23 24 25 27 27 27 28 28 28 28 27 27 26 25 25 25 26 25 23 21 19
42 44 47 49 48 47 46 44 42 42 42 42 42 42 42 43 42 39 37 35 33 30 29 29 27 26 25 24 23 22 20 18 18 17 15 14 13 14 16 17 18 20 22 23 24 26 27 27 27 28 29 29 28 28 27 26 26 26 27 26 25 23 20
43 44 47 49 49 49 47 46 44 43 42 42 42 42 42 43 42 39 37 36 33 31 30 30 28 26 25 25 24 23 21 18 18 19 17 15 13 14 15 16 17 18 20 21 23 25 26 27 27 27 29 29 29 29 29 28 27 28 28 28 27 24 22
42 44 46 48 50 51 49 47 45 43 42 41 41 42 43 43 41 38 37 36 34 33 32 30 29 26 25 25 25 24 22 20 19 20 19 17 14 14 15 16 16 17 18 20 21 23 25 26 26 27 28 29 30 29 30 30 29 29 30 30 28 25 23
42 43 45 47 49 51 51 49 46 44 44 43 42 42 43 43 41 39 39 37 36 34 33 31 29 27 26 26 26 26 25 22 21 21 22 20 17 15 16 17 17 17 18 19 20 21 23 25 26 26 27 29 30 30 30 31 31 30 31 31 29 27 25
41 41 43 45 48 50 51 50 48 46 46 45 44 44 44 44 44 42 40 39 38 37 34 32 29 27 26 26 27 28 27 25 24 24 23 22 20 18 17 18 18 19 19 19 20 21 23 25 26 26 26 28 29 29 29 30 30 31 31 31 30 28 27
39 40 42 43 46 49 51 51 49 48 47 46 47 46 45 45 44 42 41 40 40 39 36 32 30 28 27 28 28 29 29 27 26 26 25 24 23 21 20 19 20 20 19 20 21 22 23 24 25 25 26 26 28 28 28 28 29 30 31 31 30 29 28
40 41 42 43 46 48 50 51 50 49 49 48 48 48 47 46 44 43 43 42 42 40 37 34 33 32 30 29 29 30 30 29 28 28 26 26 26 24 22 21 21 21 20 21 21 22 23 23 24 25 25 25 26 26 26 26 27 28 28 28 28 28 27
48 45 44 44 46 48 49 51 51 51 51 50 49 49 48 47 45 44 45 45 42 39 38 38 37 35 33 31 30 31 30 29 29 29 28 27 28 26 23 22 22 22 22 22 22 22 23 23 23 24 24 24 25 24 25 25 25 25 25 25 26 26 25
52 50 47 45 46 48 49 51 52 53 53 52 51 50 49 47 46 45 46 45 43 41 41 41 40 38 36 34 32 32 31 29 29 30 29 28 29 28 25 23 24 24 23 23 23 22 23 23 23 23 23 23 23 23 23 24 24 24 24 24 25 25 23
52 51 49 47 46 47 49 50 52 53 54 53 52 51 50 48 47 47 46 45 44 44 45 44 42 40 39 37 36 34 33 31 30 30 29 29 29 29 27 25 25 25 25 24 24 23 23 24 23 23 22 22 23 23 23 23 23 23 23 24 24 24 23
53 51 50 49 48 48 48 49 51 53 54 54 53 52 50 48 48 48 48 46 45 46 47 46 45 43 42 40 39 38 36 34 32 31 30 29 30 30 28 26 25 26 26 25 25 24 24 24 23 23 23 23 23 23 23 23 23 23 23 24 24 25 24
56 54 52 51 50 49 48 48 49 50 52 53 53 52 50 47 48 50 49 47 46 47 48 48 47 46 45 43 42 42 41 38 36 34 32 31 30 31 30 27 27 27 26 26 25 25 24 24 24 24 24 23 23 23 23 24 23 24 24 25 26 26 26
57 56 53 51 51 50 48 47 47 47 48 51 52 52 49 47 48 50 49 47 46 47 48 49 48 48 48 47 45 45 44 42 39 37 35 33 32 32 30 28 28 27 26 25 25 25 25 25 25 24 24 23 24 24 25 25 25 25 26 27 27 27 27
56 57 55 52 51 50 48 47 46 45 46 48 50 50 47 47 48 50 49 47 47 48 49 50 50 50 49 48 48 48 46 44 41 40 38 36 34 33 32 29 29 27 25 24 25 25 25 25 25 24 25 25 26 26 26 26 27 27 27 27 27 26 25
53 55 54 53 52 51 48 46 45 45 45 46 47 46 45 46 47 49 49 48 48 49 50 51 51 50 49 49 49 49 47 45 43 42 41 39 37 35 33 31 29 27 25 25 26 26 25 25 25 26 27 28 28 28 28 28 28 27 27 25 24 24 23
51 52 53 53 53 52 49 46 45 45 45 45 45 44 44 46 47 48 47 47 47 48 50 50 50 49 48 50 50 49 47 46 44 44 43 42 40 37 34 32 29 27 25 26 27 26 26 26 27 28 29 29 29 28 28 27 27 27 25 23 22 23 23
50 50 52 53 53 52 51 48 45 45 45 44 44 44 45 46 47 47 46 46 47 48 48 48 48 48 49 50 50 49 47 46 46 45 45 44 41 37 35 32 29 28 27 27 27 26 26 27 27 28 29 29 28 28 27 27 26 26 26 24 23 23 24
51 50 51 52 52 51 51 50 47 46 46 45 44 45 45 45 45 45 44 44 44 44 45 46 46 47 49 50 50 48 47 48 48 48 48 46 42 38 35 33 30 30 30 28 27 26 26 26 27 27 28 28 28 27 27 27 27 28 28 27 26 26 27